SCP
0 0 0 0 0 0 0 0 0 0 0 0 0 0 0 0 0 0 0 0 0 0 0 0 0 0 0 0 0 0 0 0 0 0 0 0 0 0 0 0 0 0 0
0 0 0 0 0 0 0 0 0 0 0 0 0 0 0 0 0 0 0 0 0 0 0 0 0 0 0 0 0 0 0 0 0 0 0 0 0 0 0 0 0 0 0
0 0 0 0 0 0 0 0 0 0 0 0 0 0 0 0 0 0 0 0 0 0 0 0 0 0 0 0 0 0 0 0 0 0 0 0 0 0 0 0 0 0 0
0 0 0 0 0 0 0 0 0 0 0 0 0 0 0 0 0 0 0 0 0 0 0 0 0 0 0 0 0 0 0 0 0 0 0 0 0 0 0 0 0 0 0
0 0 0 0 0 0 0 0 0 0 0 0 0 0 0 0 0 0 0 0 0 0 0 0 0 0 0 0 0 0 0 0 0 0 0 0 0 0 0 0 0 0 0
0 0 0 0 0 0 0 0 0 0 0 0 0 0 0 0 0 0 0 0 0 0 0 0 0 0 0 0 0 0 0 0 0 0 0 0 0 0 0 0 0 0 0
0 0 0 0 0 0 0 0 0 0 0 0 0 0 0 0 0 0 0 0 0 0 0 0 0 0 0 0 0 0 0 0 0 0 0 0 0 0 0 0 0 0 0
0 0 0 0 0 0 0 0 0 0 0 0 0 0 0 0 0 0 0 0 0 0 0 0 0 1 1 1 0 0 0 0 0 0 0 0 0 0 0 0 0 0 0
0 0 0 0 0 0 0 0 0 0 0 0 0 0 0 0 0 0 0 0 0 0 0 0 0 1 1 1 1 0 0 0 0 0 0 0 0 0 0 0 0 0 0
0 0 0 0 0 0 0 0 0 0 0 0 0 0 0 0 0 0 0 0 0 0 0 0 0 0 1 1 1 0 0 0 0 0 0 0 0 0 0 0 0 0 0
0 0 0 0 0 0 0 0 0 0 0 0 0 0 0 0 0 0 0 0 0 0 0 0 0 0 1 1 1 0 0 0 0 0 0 0 0 0 0 0 0 0 0
1 1 0 0 0 0 0 0 0 0 0 0 0 0 0 0 0 0 0 0 0 0 0 0 1 1 1 1 0 0 0 0 0 0 0 0 0 0 0 0 0 0 0
1 1 1 1 1 0 0 0 0 0 0 0 0 0 0 0 0 0 0 0 0 0 0 0 1 1 1 1 0 0 0 0 0 0 0 0 0 0 0 0 0 0 0
0 1 1 1 1 0 0 0 0 0 0 0 0 0 0 0 0 0 0 0 0 0 0 0 0 1 1 1 0 0 0 0 0 0 0 0 0 0 0 0 0 0 0
1 1 1 1 1 1 0 0 0 0 0 0 0 0 0 0 0 0 0 0 0 0 0 0 0 0 1 1 0 0 0 0 0 0 0 0 0 0 0 0 0 0 0
1 1 1 1 1 1 1 1 1 1 1 1 0 0 0 0 0 0 0 0 0 0 0 0 0 1 1 0 0 0 0 0 0 0 0 0 0 0 0 0 0 0 0
1 1 1 1 1 1 1 1 1 1 1 1 1 1 1 1 1 1 0 0 0 0 0 0 1 1 1 1 1 1 1 0 0 0 0 0 0 0 0 0 0 0 0
1 1 1 1 1 1 1 1 1 1 1 1 1 1 1 1 1 1 1 1 1 1 1 1 1 1 1 1 1 1 1 1 0 0 0 0 0 0 0 0 0 0 0
1 1 2 2 2 1 1 1 1 1 1 1 1 1 1 1 1 1 1 1 1 1 1 1 1 1 1 1 1 1 1 1 0 0 0 0 0 0 0 0 0 0 0
1 1 2 2 2 2 1 1 1 1 1 1 1 1 1 1 1 1 1 1 1 1 1 1 1 1 1 1 1 1 1 1 1 0 0 0 0 0 0 0 0 0 0
1 2 2 2 2 1 1 1 1 1 1 1 1 1 1 1 1 1 1 1 1 1 1 1 0 0 1 1 1 1 1 1 1 1 0 0 0 0 0 0 0 0 0
2 2 2 2 1 1 1 1 1 1 1 1 1 1 1 1 1 0 0 0 0 0 0 0 0 0 0 1 1 1 1 1 1 1 0 0 0 0 0 0 0 0 0
2 2 2 1 1 1 0 0 0 1 1 1 1 1 1 0 0 0 0 0 0 0 0 0 0 0 0 1 1 1 0 1 1 1 1 0 0 0 0 0 0 0 0
2 2 2 1 1 1 0 0 0 1 1 1 1 1 1 0 0 0 0 0 0 0 0 0 0 0 0 0 0 0 0 0 0 1 1 0 0 0 0 0 0 0 0
2 2 2 1 1 1 0 0 0 1 1 1 1 1 1 1 0 0 0 1 1 1 0 0 0 0 0 0 0 0 0 0 0 0 1 1 0 1 1 1 0 0 0
2 2 2 1 1 1 1 0 0 1 1 1 1 1 1 0 0 0 0 1 1 1 1 0 0 0 0 0 0 0 0 0 0 0 1 1 1 1 1 1 0 0 0
Wind_Speed
2 2 1 1 2 2 3 2 2 2 2 2 2 2 2 3 4 5 6 11 11 10 10 9 9 8 8 7 7 7 6 6 6 6 6 6 5 6 6 6 6 6 6
2 1 1 1 1 2 2 2 2 2 2 1 1 2 2 3 4 5 6 7 10 10 10 9 9 9 8 8 7 7 7 6 6 6 6 6 6 6 7 7 7 7 6
2 2 1 1 1 2 2 2 2 2 2 2 2 2 2 2 3 3 6 5 6 9 10 10 9 9 9 8 8 8 7 7 7 7 7 7 7 7 7 7 6 6 6
2 1 1 1 1 2 1 2 1 1 1 1 1 2 2 3 3 3 4 5 5 5 8 10 9 9 9 9 8 8 8 7 8 8 8 8 8 8 8 8 8 7 6
2 1 1 1 1 2 1 1 2 1 1 1 1 2 2 2 3 3 4 5 5 5 6 9 10 9 9 9 8 8 7 7 7 8 8 8 9 9 8 8 8 8 8
2 1 1 1 1 2 2 2 1 0 0 0 1 1 1 2 3 3 4 3 4 5 6 7 6 7 10 9 8 8 8 8 8 8 8 8 8 8 9 9 9 9 9
2 1 1 1 1 1 2 2 1 1 1 1 0 0 1 2 2 3 2 2 3 3 3 5 5 4 5 9 9 9 9 9 8 8 8 8 8 8 8 8 9 9 9
2 2 1 0 1 1 1 1 1 1 1 1 1 0 0 0 1 2 3 3 3 3 3 4 4 4 3 4 6 10 9 9 9 8 8 7 7 6 7 8 8 8 9
2 1 1 1 1 1 2 2 2 2 1 0 0 1 1 0 0 0 2 2 2 2 2 2 4 4 4 3 4 7 8 8 8 8 8 7 6 6 7 7 8 8 9
2 2 2 1 1 0 1 2 2 1 1 1 1 1 0 1 1 0 1 1 2 2 2 2 2 3 3 2 2 5 6 6 6 6 6 6 6 6 7 7 8 8 8
2 2 2 1 1 1 0 0 0 0 0 1 1 0 1 0 1 1 1 1 1 2 3 2 1 1 2 3 3 4 5 5 5 5 5 5 5 6 7 7 7 8 8
2 2 2 1 1 1 1 1 1 1 0 0 1 1 0 0 0 0 1 2 2 2 2 2 2 2 2 3 3 5 7 7 6 5 4 4 5 5 6 7 8 8 8
2 2 2 2 1 1 1 1 1 1 1 1 1 1 1 1 1 0 1 1 2 2 1 2 2 2 2 3 3 5 7 8 7 5 4 4 3 4 4 4 5 5 6
1 2 2 2 1 1 1 1 1 2 1 1 1 1 1 1 1 1 1 1 2 2 1 1 1 1 1 2 3 5 4 7 7 6 5 4 4 3 3 3 3 3 4
1 3 3 3 2 1 1 1 1 1 1 1 1 1 1 1 1 1 1 1 1 2 2 2 1 1 1 1 3 2 3 6 7 7 6 5 5 5 4 3 3 3 3
1 2 2 2 2 2 2 1 1 1 2 2 2 1 1 1 1 1 1 1 1 1 2 2 2 1 0 1 3 2 3 6 8 8 8 7 7 6 5 4 4 4 4
2 2 2 2 2 2 2 2 3 2 2 2 2 2 2 2 1 2 2 1 1 1 2 2 1 1 1 1 1 2 3 4 4 9 10 9 7 7 6 6 5 4 4
2 2 2 3 3 3 3 3 3 2 2 2 2 2 2 1 1 2 2 2 1 2 1 3 2 2 2 2 2 2 3 3 3 7 10 9 8 8 7 7 6 5 5
3 3 3 3 2 2 2 2 2 1 2 2 2 2 2 2 2 1 1 1 2 2 1 2 3 2 1 1 2 3 3 2 3 3 7 9 9 9 8 8 7 6 5
3 3 3 3 2 2 2 2 2 2 2 2 2 2 2 2 2 2 2 2 2 2 2 2 2 2 1 2 1 2 3 2 3 3 3 4 7 9 9 9 8 7 7
4 3 3 3 3 3 3 2 3 3 2 2 2 2 2 1 1 0 1 1 2 1 2 2 2 2 2 2 2 2 3 2 3 2 1 2 3 3 5 7 8 8 8
3 3 2 2 3 3 1 2 2 2 2 2 2 2 2 1 1 1 0 1 1 1 2 2 2 2 2 2 2 3 3 3 3 2 1 3 2 3 3 4 6 8 8
3 3 3 3 2 1 1 3 4 3 3 2 2 2 3 2 2 1 1 1 2 3 3 2 3 3 3 2 2 3 3 4 4 2 2 3 2 3 2 3 8 8 8
3 3 3 3 2 2 1 2 3 4 3 2 2 2 2 1 2 0 1 1 2 3 4 3 3 3 3 3 3 4 4 4 4 2 1 3 2 2 2 2 6 8 8
3 4 3 3 3 2 3 3 3 3 3 3 3 2 2 1 1 1 1 2 2 3 3 3 3 3 4 4 3 3 3 3 4 2 1 2 2 3 2 2 3 7 8
3 3 3 3 3 2 3 4 4 3 3 2 2 2 1 2 3 2 2 2 2 3 3 4 3 4 4 4 4 2 3 3 3 3 2 1 2 2 2 2 1 2 4
Wind_Direction
83 82 73 87 144 140 141 151 148 165 157 153 163 139 115 115 124 126 140 160 164 168 173 176 179 184 187 190 194 196 200 205 205 205 204 207 208 208 206 207 209 211 210
97 98 107 102 122 125 136 148 152 143 131 128 147 150 150 139 136 139 143 164 172 175 179 182 184 188 191 194 198 202 206 211 211 209 208 211 214 214 215 215 216 215 215
109 111 128 142 126 134 132 129 120 133 150 163 156 152 137 132 134 145 152 162 172 181 184 186 190 193 196 199 204 209 212 215 215 216 217 219 220 218 221 220 219 219 220
115 123 134 118 125 128 117 135 126 120 139 148 157 174 159 153 151 161 167 172 171 177 187 194 196 199 203 207 210 215 217 218 219 221 223 224 224 223 224 222 220 219 221
125 120 101 86 131 129 136 135 111 105 160 133 179 178 182 165 160 176 178 181 174 171 173 187 195 199 204 211 213 218 221 223 225 229 230 230 229 225 225 223 222 220 219
123 125 124 90 76 80 87 91 100 132 186 187 244 164 187 176 172 174 181 180 175 178 178 173 185 201 209 214 215 218 223 226 229 231 232 234 234 230 227 226 226 226 223
130 124 77 94 105 111 124 140 142 175 169 144 149 243 217 194 179 167 173 180 178 177 177 171 177 187 197 211 219 221 225 228 231 231 231 234 237 234 231 230 230 230 229
157 164 148 175 128 141 140 160 144 168 216 164 159 149 250 303 291 206 179 188 191 184 189 191 183 187 194 182 205 217 225 229 233 232 229 231 233 232 230 232 233 231 230
162 97 149 194 190 191 169 187 180 187 201 236 160 163 158 180 269 267 209 184 175 185 205 202 189 187 199 195 186 203 217 225 230 231 230 231 230 229 231 234 235 233 232
169 172 193 194 203 200 169 201 165 207 198 224 244 217 171 119 120 320 284 194 188 202 214 232 203 184 183 175 162 157 196 213 221 230 233 234 230 229 231 235 238 239 238
180 178 170 167 186 159 164 262 145 220 241 267 251 231 223 206 193 170 251 268 237 208 199 206 210 188 173 163 152 157 174 195 206 217 225 230 232 236 239 242 245 246 246
179 176 155 159 160 169 194 208 198 181 226 278 306 300 232 99 242 240 255 259 263 242 201 190 190 184 181 161 171 172 176 183 190 202 216 223 234 241 244 249 252 253 251
172 166 162 159 164 183 201 202 196 200 215 229 234 277 303 274 281 271 271 273 290 281 248 219 198 190 185 160 154 175 179 182 187 196 206 216 226 236 244 252 258 261 263
152 148 160 159 168 214 214 207 219 210 197 216 224 243 264 276 294 250 234 251 278 285 298 266 220 186 146 154 161 186 178 187 190 194 201 208 216 222 228 241 254 265 274
155 145 157 158 174 210 228 215 224 220 185 213 240 247 256 268 266 280 278 254 253 286 296 289 296 211 183 142 159 202 184 193 197 196 202 206 213 218 218 225 236 246 255
152 145 162 171 180 201 212 208 222 212 192 205 222 237 256 281 296 293 282 283 286 252 272 280 275 271 246 231 174 205 203 198 203 200 204 206 212 214 215 220 229 237 240
176 175 192 191 194 206 211 216 220 206 205 214 235 224 227 236 280 295 293 287 291 277 268 285 288 281 271 266 212 223 216 205 196 202 204 207 211 213 213 215 223 230 233
197 198 204 204 210 215 220 222 231 209 211 217 221 221 224 230 252 283 300 317 310 296 274 279 282 270 265 247 240 254 259 244 219 206 200 207 209 214 215 215 217 220 223
204 207 206 213 225 224 218 220 233 215 213 216 202 211 223 209 232 257 266 286 286 298 274 266 276 275 283 299 279 276 274 266 262 215 197 207 214 216 218 219 217 214 214
213 219 212 213 218 230 215 206 214 225 225 222 204 215 234 221 233 260 259 268 283 294 293 289 281 280 274 280 282 282 284 271 268 251 214 203 209 215 221 219 215 211 214
212 217 223 223 224 231 226 205 203 211 218 230 217 211 215 184 133 17 307 312 304 297 298 293 283 296 308 320 302 286 290 286 272 262 227 228 211 219 220 212 210 212 214
207 204 214 227 240 257 246 202 223 222 205 209 226 237 209 174 145 150 139 335 312 290 303 303 305 303 299 302 302 302 305 305 288 268 263 264 230 221 218 191 194 200 209
203 202 212 218 223 268 256 226 222 238 226 209 210 231 265 255 180 193 254 259 279 280 265 265 287 295 298 299 300 296 293 292 282 281 279 276 253 241 229 196 183 189 199
201 206 216 220 216 234 236 247 234 236 226 208 210 217 238 247 267 320 267 273 272 276 268 260 263 275 290 300 289 283 275 278 277 280 286 276 276 272 266 203 190 191 200
206 208 215 220 216 220 200 206 225 241 228 214 214 218 221 202 147 98 252 261 278 293 290 276 259 265 283 297 304 304 296 293 291 286 280 275 287 293 272 228 205 200 203
214 213 213 212 211 208 194 204 217 239 235 226 206 187 195 185 172 171 215 242 263 286 305 307 282 272 266 268 269 257 281 292 296 294 309 293 291 300 283 260 219 202 212